This demonstration page uses our WeatherBlox Daily Observations layout. Learn more.

Left ArrowRight Arrow

38.20091, -84.87328

Hourly Observations for April 27, 2020

Temp ( °F °C ) Dew Point ( °F °C ) Humidity (%) Winds ( mph kmh ) Pressure ( in mb ) Visibility ( mi km ) Precip ( " mm )
12:19 am 00:19 Mostly Cloudy with Mist and Fog 41 5 39 3.9 93 93 Calm 30.15 1021 1 2 0.00 0.00
12:27 am 00:27 Mostly Cloudy with Fog 41 5 39 3.9 93 93 Calm 30.15 1021 1 1 0.00 0.00
12:53 am 00:53 Mostly Cloudy with Fog 41 5 39 3.9 93 93 Calm 30.14 1021 1 1 0.00 0.00
1:53 am 01:53 Mostly Cloudy with Fog 40 4.4 39 3.9 97 97 Calm 30.15 1021 1 1 0.00 0.00
1:59 am 01:59 Partly Cloudy with Mist and Fog 40 4.4 38 3.3 93 93 Calm 30.17 1022 1 2 0.00 0.00
2:08 am 02:08 Mostly Cloudy with Mist and Fog 40 4.4 37 2.8 89 89 Calm 30.17 1022 1 1 0.00 0.00
2:53 am 02:53 Mostly Cloudy with Fog 38 3.3 36 2.2 93 93 Calm 30.16 1021 1 1 0.00 0.00
3:49 am 03:49 Mostly Cloudy with Mist and Fog 37 3 36 2 93 93 Calm 30.18 1022 1 2 0.00 0.00
3:53 am 03:53 Mostly Cloudy with Mist and Fog 37 2.8 35 1.7 93 93 Calm 30.15 1021 1 2 0.00 0.00
4:25 am 04:25 Mostly Cloudy with Fog 36 2.2 34 1.1 93 93 Calm 30.18 1022 1 1 0.00 0.00
4:53 am 04:53 Mostly Cloudy with Fog 36 2.2 34 1.1 93 93 Calm 30.17 1022 1 1 0.00 0.00
5:53 am 05:53 Mostly Cloudy with Fog 36 2.2 34 1.1 93 93 Calm 30.18 1022 N/A 0.00 0.00
6:53 am 06:53 Mostly Cloudy with Fog 36 2.2 34 1.1 93 93 Calm 30.19 1022 N/A 0.00 0.00
7:39 am 07:39 Partly Cloudy with Mist and Fog 36 2.2 34 1.1 93 93 Calm 30.23 1024 1 2 0.00 0.00
7:45 am 07:45 Mostly Cloudy with Mist and Fog 36 2.2 34 1.1 93 93 Calm 30.24 1024 1 1 0.00 0.00
7:53 am 07:53 Partly Cloudy with Fog 37 2.8 35 1.7 93 93 Calm 30.22 1023 N/A 0.00 0.00
8:07 am 08:07 Partly Cloudy with Mist and Fog 39 3.9 38 3.3 96 96 Calm 30.25 1024 2 3 0.00 0.00
8:09 am 08:09 Partly Cloudy with Mist and Fog 39 3.9 38 3.3 96 96 Calm 30.25 1024 4 6 0.00 0.00
8:53 am 08:53 Sunny 44 6.7 42 5.6 93 93 Calm 30.25 1024 10 16 0.00 0.00
9:53 am 09:53 Sunny 51 10.6 44 6.7 77 77 SSW 5 7 30.26 1025 10 16 0.00 0.00
10:53 am 10:53 Sunny 55 12.8 40 4.4 57 57 Calm 30.25 1024 10 16 0.00 0.00
11:53 am 11:53 Sunny 58 14.4 38 3.3 48 48 Calm 30.25 1025 10 16 0.00 0.00
12:53 pm 12:53 Sunny 61 16.1 39 3.9 44 44 Calm 30.23 1024 10 16 0.00 0.00
1:53 pm 13:53 Sunny 63 17.2 38 3.3 40 40 SW 8 13 30.22 1023 10 16 0.00 0.00
2:53 pm 14:53 Sunny 64 17.8 35 1.7 34 34 Calm 30.20 1023 10 16 0.00 0.00
3:53 pm 15:53 Sunny 65 18.3 38 3.3 37 37 undefined N/A 30.17 1022 10 16 0.00 0.00
4:53 pm 16:53 Partly Cloudy 65 18.3 36 2.2 34 34 WSW 7 11 30.15 1021 10 16 0.00 0.00
5:53 pm 17:53 Sunny 65 18.3 34 1.1 32 32 SW 7 11 30.13 1020 10 16 0.00 0.00
6:53 pm 18:53 Sunny 64 17.8 38 3.3 38 38 SW 9 15 30.11 1020 10 16 0.00 0.00
7:53 pm 19:53 Sunny 63 17.2 38 3.3 40 40 S 7 11 30.09 1019 10 16 0.00 0.00
8:53 pm 20:53 Clear 59 15 39 3.9 48 48 S 6 9 30.09 1019 10 16 0.00 0.00
9:53 pm 21:53 Clear 58 14.4 39 3.9 50 50 S 7 11 30.08 1019 10 16 0.00 0.00
10:53 pm 22:53 Partly Cloudy 57 13.9 39 3.9 51 51 S 8 13 30.08 1019 10 16 0.00 0.00
11:53 pm 23:53 Clear 56 13.3 39 3.9 53 53 SSW 7 11 30.07 1018 10 16 0.00 0.00

Powered by AerisWeather